Time,TemperatureF,DewpointF,PressureIn,WindDirection,WindDirectionDegrees,WindSpeedMPH,WindSpeedGustMPH,Humidity,HourlyPrecipIn,Conditions,Clouds,dailyrainin,SoftwareType,DateUTC
2013-01-08 00:00:00,31.9,10.9,29.79,SSE,158,0.0,4.0,41,0.00,,---,0.00,VWS V14.00,2013-01-08 07:00:00,
2013-01-08 00:02:00,31.6,10.6,29.79,SSE,155,0.0,4.0,41,0.00,,---,0.00,VWS V14.00,2013-01-08 07:02:00,
2013-01-08 00:07:00,31.5,10.5,29.79,SSE,155,0.0,2.0,41,0.00,,---,0.00,VWS V14.00,2013-01-08 07:07:00,
2013-01-08 00:12:00,31.2,10.2,29.79,SSE,155,0.0,2.0,41,0.00,,---,0.00,VWS V14.00,2013-01-08 07:12:00,
2013-01-08 00:17:00,31.0,10.1,29.78,SSE,155,0.0,2.0,41,0.00,,---,0.00,VWS V14.00,2013-01-08 07:17:00,
2013-01-08 00:22:00,30.7,9.8,29.78,SSE,155,0.0,2.0,41,0.00,,---,0.00,VWS V14.00,2013-01-08 07:22:00,
2013-01-08 00:27:00,30.6,9.7,29.78,SSE,155,0.0,2.0,41,0.00,,---,0.00,VWS V14.00,2013-01-08 07:27:00,
2013-01-08 00:30:00,31.0,10.1,29.78,SSE,158,0.0,2.0,41,0.00,,---,0.00,VWS V14.00,2013-01-08 07:30:00,
2013-01-08 00:32:00,30.4,9.5,29.78,SSE,155,0.0,2.0,41,0.00,,---,0.00,VWS V14.00,2013-01-08 07:32:00,
2013-01-08 00:37:00,30.9,8.9,29.78,SSE,155,0.0,2.0,39,0.00,,---,0.00,VWS V14.00,2013-01-08 07:37:00,
2013-01-08 00:42:00,31.0,9.0,29.78,SSE,155,0.0,2.0,39,0.00,,---,0.00,VWS V14.00,2013-01-08 07:42:00,
2013-01-08 00:47:00,31.2,9.1,29.77,SSE,155,0.0,2.0,39,0.00,,---,0.00,VWS V14.00,2013-01-08 07:47:00,
2013-01-08 00:52:00,31.0,8.4,29.77,SSE,155,0.0,2.0,38,0.00,,---,0.00,VWS V14.00,2013-01-08 07:52:00,
2013-01-08 00:57:00,30.7,8.1,29.77,SSE,155,0.0,2.0,38,0.00,,---,0.00,VWS V14.00,2013-01-08 07:57:00,
2013-01-08 01:00:00,30.9,8.3,29.77,SSE,158,0.0,2.0,38,0.00,,---,0.00,VWS V14.00,2013-01-08 08:00:00,
2013-01-08 01:02:00,30.6,8.0,29.77,SSE,155,0.0,2.0,38,0.00,,---,0.00,VWS V14.00,2013-01-08 08:02:00,
2013-01-08 01:06:00,30.6,7.4,29.77,SSE,155,0.0,0.0,37,0.00,,---,0.00,VWS V14.00,2013-01-08 08:06:00,
2013-01-08 01:11:00,30.6,6.8,29.77,SSE,155,0.0,0.0,36,0.00,,---,0.00,VWS V14.00,2013-01-08 08:11:00,
2013-01-08 01:16:00,30.6,6.8,29.78,SSE,155,0.0,0.0,36,0.00,,---,0.00,VWS V14.00,2013-01-08 08:16:00,
2013-01-08 01:21:00,30.3,6.6,29.78,SSE,155,0.0,0.0,36,0.00,,---,0.00,VWS V14.00,2013-01-08 08:21:00,
2013-01-08 01:26:00,30.0,6.3,29.78,SSE,155,0.0,0.0,36,0.00,,---,0.00,VWS V14.00,2013-01-08 08:26:00,
2013-01-08 01:30:00,30.4,6.7,29.78,SSE,158,0.0,0.0,36,0.00,,---,0.00,VWS V14.00,2013-01-08 08:30:00,
2013-01-08 01:31:00,30.0,6.9,29.78,SSE,155,0.0,0.0,37,0.00,,---,0.00,VWS V14.00,2013-01-08 08:31:00,
2013-01-08 01:36:00,30.1,6.4,29.78,SSE,155,0.0,0.0,36,0.00,,---,0.00,VWS V14.00,2013-01-08 08:36:00,
2013-01-08 01:41:00,30.3,6.6,29.78,SSE,155,0.0,0.0,36,0.00,,---,0.00,VWS V14.00,2013-01-08 08:41:00,
2013-01-08 01:46:00,30.3,6.6,29.78,SSE,155,0.0,0.0,36,0.00,,---,0.00,VWS V14.00,2013-01-08 08:46:00,
2013-01-08 01:51:00,30.3,6.6,29.78,SSE,155,0.0,0.0,36,0.00,,---,0.00,VWS V14.00,2013-01-08 08:51:00,
2013-01-08 01:56:00,30.3,5.9,29.78,SSE,155,0.0,0.0,35,0.00,,---,0.00,VWS V14.00,2013-01-08 08:56:00,
2013-01-08 02:00:00,30.2,7.1,29.80,SSE,158,0.0,0.0,37,0.00,,---,0.00,VWS V14.00,2013-01-08 09:00:00,
2013-01-08 02:01:00,30.1,7.0,29.80,SSE,155,0.0,0.0,37,0.00,,---,0.00,VWS V14.00,2013-01-08 09:01:00,
2013-01-08 02:06:00,30.0,7.5,29.80,SSE,155,0.0,0.0,38,0.00,,---,0.00,VWS V14.00,2013-01-08 09:06:00,
2013-01-08 02:11:00,29.9,8.0,29.80,SSE,155,0.0,0.0,39,0.00,,---,0.00,VWS V14.00,2013-01-08 09:11:00,
2013-01-08 02:16:00,29.7,8.4,29.80,SSE,155,0.0,0.0,40,0.00,,---,0.00,VWS V14.00,2013-01-08 09:16:00,
2013-01-08 02:21:00,29.9,8.0,29.80,SSE,155,0.0,0.0,39,0.00,,---,0.00,VWS V14.00,2013-01-08 09:21:00,
2013-01-08 02:26:00,30.1,8.1,29.80,SSE,155,0.0,0.0,39,0.00,,---,0.00,VWS V14.00,2013-01-08 09:26:00,
2013-01-08 02:30:00,29.9,8.0,29.80,SSE,158,0.0,0.0,39,0.00,,---,0.00,VWS V14.00,2013-01-08 09:30:00,
2013-01-08 02:31:00,30.1,8.1,29.80,SSE,155,0.0,0.0,39,0.00,,---,0.00,VWS V14.00,2013-01-08 09:31:00,
2013-01-08 02:36:00,30.1,7.6,29.80,SSE,155,0.0,0.0,38,0.00,,---,0.00,VWS V14.00,2013-01-08 09:36:00,
2013-01-08 02:41:00,30.3,7.8,29.80,SSE,155,0.0,0.0,38,0.00,,---,0.00,VWS V14.00,2013-01-08 09:41:00,
2013-01-08 02:46:00,30.4,7.3,29.80,SSE,155,0.0,0.0,37,0.00,,---,0.00,VWS V14.00,2013-01-08 09:46:00,
2013-01-08 02:51:00,30.7,6.3,29.80,SSE,155,0.0,0.0,35,0.00,,---,0.00,VWS V14.00,2013-01-08 09:51:00,
2013-01-08 02:56:00,31.0,6.6,29.80,SSE,155,0.0,0.0,35,0.00,,---,0.00,VWS V14.00,2013-01-08 09:56:00,
2013-01-08 03:00:00,30.5,6.1,29.79,SSE,158,0.0,0.0,35,0.00,,---,0.00,VWS V14.00,2013-01-08 10:00:00,
2013-01-08 03:01:00,31.3,6.8,29.79,SSE,155,0.0,0.0,35,0.00,,---,0.00,VWS V14.00,2013-01-08 10:01:00,
2013-01-08 03:06:00,31.8,6.0,29.79,SSE,155,0.0,0.0,33,0.00,,---,0.00,VWS V14.00,2013-01-08 10:06:00,
2013-01-08 03:11:00,32.5,5.9,29.79,SSE,155,0.0,1.0,32,0.00,,---,0.00,VWS V14.00,2013-01-08 10:11:00,
2013-01-08 03:16:00,33.0,6.4,29.80,SSE,155,0.0,1.0,32,0.00,,---,0.00,VWS V14.00,2013-01-08 10:16:00,
2013-01-08 03:21:00,33.1,5.8,29.80,SSE,155,0.0,1.0,31,0.00,,---,0.00,VWS V14.00,2013-01-08 10:21:00,
2013-01-08 03:26:00,33.3,6.6,29.80,SSE,155,0.0,1.0,32,0.00,,---,0.00,VWS V14.00,2013-01-08 10:26:00,
2013-01-08 03:30:00,32.7,5.4,29.79,SSE,158,0.0,1.0,31,0.00,,---,0.00,VWS V14.00,2013-01-08 10:30:00,
2013-01-08 03:31:00,33.3,5.9,29.79,SSE,155,0.0,1.0,31,0.00,,---,0.00,VWS V14.00,2013-01-08 10:31:00,
2013-01-08 03:36:00,33.4,6.0,29.79,SSE,155,0.0,0.0,31,0.00,,---,0.00,VWS V14.00,2013-01-08 10:36:00,
2013-01-08 03:41:00,33.5,6.1,29.79,SSE,155,0.0,0.0,31,0.00,,---,0.00,VWS V14.00,2013-01-08 10:41:00,
2013-01-08 03:46:00,33.7,6.3,29.79,SSE,155,0.0,0.0,31,0.00,,---,0.00,VWS V14.00,2013-01-08 10:46:00,
2013-01-08 03:51:00,34.0,5.8,29.79,SSE,155,0.0,0.0,30,0.00,,---,0.00,VWS V14.00,2013-01-08 10:51:00,
2013-01-08 03:56:00,34.3,6.1,29.79,SSE,155,0.0,0.0,30,0.00,,---,0.00,VWS V14.00,2013-01-08 10:56:00,
2013-01-08 04:00:00,33.8,5.7,29.80,SSE,158,0.0,0.0,30,0.00,,---,0.00,VWS V14.00,2013-01-08 11:00:00,
2013-01-08 04:01:00,34.7,6.4,29.80,SSE,155,0.0,0.0,30,0.00,,---,0.00,VWS V14.00,2013-01-08 11:01:00,
2013-01-08 04:06:00,34.6,6.4,29.80,SSE,155,0.0,0.0,30,0.00,,---,0.00,VWS V14.00,2013-01-08 11:06:00,
2013-01-08 04:11:00,34.4,6.9,29.80,SSE,155,0.0,0.0,31,0.00,,---,0.00,VWS V14.00,2013-01-08 11:11:00,
2013-01-08 04:16:00,34.3,6.8,29.80,SSE,155,0.0,0.0,31,0.00,,---,0.00,VWS V14.00,2013-01-08 11:16:00,
2013-01-08 04:21:00,34.0,7.3,29.80,SSE,155,0.0,0.0,32,0.00,,---,0.00,VWS V14.00,2013-01-08 11:21:00,
2013-01-08 04:26:00,33.8,6.4,29.80,SSE,155,0.0,0.0,31,0.00,,---,0.00,VWS V14.00,2013-01-08 11:26:00,
2013-01-08 04:30:00,34.2,6.7,29.81,SSE,158,0.0,0.0,31,0.00,,---,0.00,VWS V14.00,2013-01-08 11:30:00,
2013-01-08 04:31:00,33.7,6.3,29.81,SSE,155,0.0,0.0,31,0.00,,---,0.00,VWS V14.00,2013-01-08 11:31:00,
2013-01-08 04:36:00,33.4,6.7,29.81,SSE,155,0.0,0.0,32,0.00,,---,0.00,VWS V14.00,2013-01-08 11:36:00,
2013-01-08 04:41:00,33.4,5.3,29.81,SSE,155,0.0,0.0,30,0.00,,---,0.00,VWS V14.00,2013-01-08 11:41:00,
2013-01-08 04:46:00,33.4,6.7,29.80,SSE,155,0.0,0.0,32,0.00,,---,0.00,VWS V14.00,2013-01-08 11:46:00,
2013-01-08 04:51:00,33.3,7.3,29.80,SSE,155,0.0,0.0,33,0.00,,---,0.00,VWS V14.00,2013-01-08 11:51:00,
2013-01-08 04:56:00,33.1,6.5,29.80,SSE,155,0.0,0.0,32,0.00,,---,0.00,VWS V14.00,2013-01-08 11:56:00,
2013-01-08 05:00:00,33.3,8.0,29.81,SSE,158,0.0,0.0,34,0.00,,---,0.00,VWS V14.00,2013-01-08 12:00:00,
2013-01-08 05:01:00,33.0,7.7,29.81,SSE,155,0.0,0.0,34,0.00,,---,0.00,VWS V14.00,2013-01-08 12:01:00,
2013-01-08 05:06:00,32.7,7.4,29.81,SSE,155,0.0,0.0,34,0.00,,---,0.00,VWS V14.00,2013-01-08 12:06:00,
2013-01-08 05:11:00,32.4,7.8,29.81,SSE,155,0.0,0.0,35,0.00,,---,0.00,VWS V14.00,2013-01-08 12:11:00,
2013-01-08 05:16:00,32.2,7.6,29.81,SSE,155,0.0,0.0,35,0.00,,---,0.00,VWS V14.00,2013-01-08 12:16:00,
2013-01-08 05:21:00,32.1,8.2,29.81,SSE,155,0.0,0.0,36,0.00,,---,0.00,VWS V14.00,2013-01-08 12:21:00,
2013-01-08 05:26:00,31.8,7.9,29.81,SSE,155,0.0,0.0,36,0.00,,---,0.00,VWS V14.00,2013-01-08 12:26:00,
2013-01-08 05:30:00,32.2,9.5,29.81,SSE,158,0.0,0.0,38,0.00,,---,0.00,VWS V14.00,2013-01-08 12:30:00,
2013-01-08 05:31:00,31.6,8.3,29.81,SSE,155,0.0,0.0,37,0.00,,---,0.00,VWS V14.00,2013-01-08 12:31:00,
2013-01-08 05:36:00,31.3,8.6,29.81,SSE,155,0.0,0.0,38,0.00,,---,0.00,VWS V14.00,2013-01-08 12:36:00,
2013-01-08 05:41:00,31.3,7.5,29.81,SSE,155,0.0,0.0,36,0.00,,---,0.00,VWS V14.00,2013-01-08 12:41:00,
2013-01-08 05:46:00,32.5,9.1,29.81,NNW,334,1.0,4.0,37,0.00,,---,0.00,VWS V14.00,2013-01-08 12:46:00,
2013-01-08 05:51:00,35.3,11.0,29.81,West,279,0.0,4.0,36,0.00,,---,0.00,VWS V14.00,2013-01-08 12:51:00,
2013-01-08 05:56:00,37.2,12.1,29.81,WNW,284,2.0,4.0,35,0.00,,---,0.00,VWS V14.00,2013-01-08 12:56:00,
2013-01-08 06:00:00,34.0,7.3,29.83,West,270,0.0,4.0,32,0.00,,---,0.00,VWS V14.00,2013-01-08 13:00:00,
2013-01-08 06:01:00,38.4,11.1,29.83,WNW,284,0.0,4.0,32,0.00,,---,0.00,VWS V14.00,2013-01-08 13:01:00,
2013-01-08 06:06:00,38.4,11.1,29.83,WNW,284,0.0,0.0,32,0.00,,---,0.00,VWS V14.00,2013-01-08 13:06:00,
2013-01-08 06:11:00,37.9,10.7,29.83,WNW,284,0.0,0.0,32,0.00,,---,0.00,VWS V14.00,2013-01-08 13:11:00,
2013-01-08 06:16:00,37.6,10.4,29.83,WNW,284,0.0,2.0,32,0.00,,---,0.00,VWS V14.00,2013-01-08 13:16:00,
2013-01-08 06:21:00,37.4,10.2,29.83,WNW,284,0.0,2.0,32,0.00,,---,0.00,VWS V14.00,2013-01-08 13:21:00,
2013-01-08 06:26:00,36.9,9.1,29.83,WNW,284,0.0,2.0,31,0.00,,---,0.00,VWS V14.00,2013-01-08 13:26:00,
2013-01-08 06:30:00,37.6,10.4,29.83,WNW,292,0.0,2.0,32,0.00,,---,0.00,VWS V14.00,2013-01-08 13:30:00,
2013-01-08 06:31:00,36.8,9.7,29.83,WNW,284,0.0,2.0,32,0.00,,---,0.00,VWS V14.00,2013-01-08 13:31:00,
2013-01-08 06:36:00,36.6,9.6,29.83,WNW,284,0.0,1.0,32,0.00,,---,0.00,VWS V14.00,2013-01-08 13:36:00,
2013-01-08 06:41:00,36.4,9.4,29.83,WNW,284,0.0,1.0,32,0.00,,---,0.00,VWS V14.00,2013-01-08 13:41:00,
2013-01-08 06:46:00,35.9,8.9,29.83,WNW,284,0.0,1.0,32,0.00,,---,0.00,VWS V14.00,2013-01-08 13:46:00,
2013-01-08 06:51:00,35.5,8.6,29.83,WNW,284,0.0,1.0,32,0.00,,---,0.00,VWS V14.00,2013-01-08 13:51:00,
2013-01-08 06:56:00,35.0,8.8,29.83,WNW,284,0.0,1.0,33,0.00,,---,0.00,VWS V14.00,2013-01-08 13:56:00,
2013-01-08 07:00:00,35.8,9.5,29.84,WNW,292,0.0,2.0,33,0.00,,---,0.00,VWS V14.00,2013-01-08 14:00:00,
2013-01-08 07:01:00,34.7,8.6,29.84,WNW,284,0.0,1.0,33,0.00,,---,0.00,VWS V14.00,2013-01-08 14:01:00,
2013-01-08 07:06:00,34.6,9.1,29.84,WNW,284,0.0,0.0,34,0.00,,---,0.00,VWS V14.00,2013-01-08 14:06:00,
2013-01-08 07:11:00,34.6,9.1,29.84,WNW,284,0.0,0.0,34,0.00,,---,0.00,VWS V14.00,2013-01-08 14:11:00,
2013-01-08 07:16:00,34.4,8.9,29.84,WNW,284,0.0,0.0,34,0.00,,---,0.00,VWS V14.00,2013-01-08 14:16:00,
2013-01-08 07:21:00,34.1,9.3,29.84,WNW,284,0.0,0.0,35,0.00,,---,0.00,VWS V14.00,2013-01-08 14:21:00,
2013-01-08 07:26:00,34.0,9.9,29.84,WNW,284,0.0,0.0,36,0.00,,---,0.00,VWS V14.00,2013-01-08 14:26:00,
2013-01-08 07:30:00,34.3,11.4,29.85,WNW,292,0.0,0.0,38,0.00,,---,0.00,VWS V14.00,2013-01-08 14:30:00,
2013-01-08 07:31:00,33.7,10.8,29.85,WNW,284,0.0,0.0,38,0.00,,---,0.00,VWS V14.00,2013-01-08 14:31:00,
2013-01-08 07:36:00,33.1,10.9,29.85,WNW,284,0.0,0.0,39,0.00,,---,0.00,VWS V14.00,2013-01-08 14:36:00,
2013-01-08 07:41:00,32.8,10.6,29.85,WNW,284,0.0,0.0,39,0.00,,---,0.00,VWS V14.00,2013-01-08 14:41:00,
2013-01-08 07:46:00,32.4,10.2,29.86,WNW,284,0.0,0.0,39,0.00,,---,0.00,VWS V14.00,2013-01-08 14:46:00,
2013-01-08 07:51:00,32.8,10.0,29.86,WNW,284,0.0,1.0,38,0.00,,---,0.00,VWS V14.00,2013-01-08 14:51:00,
2013-01-08 07:56:00,34.0,9.9,29.86,WNW,284,0.0,2.0,36,0.00,,---,0.00,VWS V14.00,2013-01-08 14:56:00,
2013-01-08 08:00:00,33.3,8.0,29.87,WNW,292,0.0,3.0,34,0.00,,---,0.00,VWS V14.00,2013-01-08 15:00:00,
2013-01-08 08:01:00,35.8,10.2,29.87,WNW,284,2.0,2.0,34,0.00,,---,0.00,VWS V14.00,2013-01-08 15:01:00,
2013-01-08 08:06:00,37.5,10.3,29.87,WNW,298,0.0,3.0,32,0.00,,---,0.00,VWS V14.00,2013-01-08 15:06:00,
2013-01-08 08:11:00,38.6,11.3,29.87,WNW,298,0.0,3.0,32,0.00,,---,0.00,VWS V14.00,2013-01-08 15:11:00,
2013-01-08 08:16:00,39.5,12.1,29.88,WNW,298,0.0,3.0,32,0.00,,---,0.00,VWS V14.00,2013-01-08 15:16:00,
2013-01-08 08:21:00,39.8,12.4,29.88,WNW,298,0.0,3.0,32,0.00,,---,0.00,VWS V14.00,2013-01-08 15:21:00,
2013-01-08 08:26:00,39.9,12.4,29.88,WNW,298,0.0,3.0,32,0.00,,---,0.00,VWS V14.00,2013-01-08 15:26:00,
2013-01-08 08:30:00,39.0,11.7,29.89,WNW,292,0.0,3.0,32,0.00,,---,0.00,VWS V14.00,2013-01-08 15:30:00,
2013-01-08 08:31:00,40.2,12.7,29.89,WNW,298,0.0,3.0,32,0.00,,---,0.00,VWS V14.00,2013-01-08 15:31:00,
2013-01-08 08:36:00,40.4,12.2,29.89,WNW,298,0.0,0.0,31,0.00,,---,0.00,VWS V14.00,2013-01-08 15:36:00,
2013-01-08 08:41:00,40.8,13.2,29.89,WNW,298,0.0,2.0,32,0.00,,---,0.00,VWS V14.00,2013-01-08 15:41:00,
2013-01-08 08:46:00,41.8,14.1,29.90,North,355,0.0,3.0,32,0.00,,---,0.00,VWS V14.00,2013-01-08 15:46:00,
2013-01-08 08:51:00,42.5,14.0,29.90,NNW,338,0.0,3.0,31,0.00,,---,0.00,VWS V14.00,2013-01-08 15:51:00,
2013-01-08 08:56:00,42.7,14.2,29.90,SW,231,0.0,4.0,31,0.00,,---,0.00,VWS V14.00,2013-01-08 15:56:00,
2013-01-08 09:00:00,41.6,13.2,29.90,NNW,338,0.0,4.0,31,0.00,,---,0.00,VWS V14.00,2013-01-08 16:00:00,
2013-01-08 09:01:00,42.4,13.9,29.90,SW,231,0.0,4.0,31,0.00,,---,0.00,VWS V14.00,2013-01-08 16:01:00,
2013-01-08 09:06:00,42.1,14.4,29.90,SW,231,0.0,0.0,32,0.00,,---,0.00,VWS V14.00,2013-01-08 16:06:00,
2013-01-08 09:11:00,41.9,14.2,29.90,SW,231,0.0,0.0,32,0.00,,---,0.00,VWS V14.00,2013-01-08 16:11:00,
2013-01-08 09:16:00,41.9,14.2,29.91,SW,231,0.0,0.0,32,0.00,,---,0.00,VWS V14.00,2013-01-08 16:16:00,
2013-01-08 09:21:00,41.9,14.2,29.91,SW,231,0.0,0.0,32,0.00,,---,0.00,VWS V14.00,2013-01-08 16:21:00,
2013-01-08 09:26:00,42.2,14.5,29.91,SW,231,0.0,0.0,32,0.00,,---,0.00,VWS V14.00,2013-01-08 16:26:00,
2013-01-08 09:30:00,42.1,13.7,29.91,SW,225,0.0,1.0,31,0.00,,---,0.00,VWS V14.00,2013-01-08 16:30:00,
2013-01-08 09:31:00,42.8,15.0,29.91,SW,231,0.0,0.0,32,0.00,,---,0.00,VWS V14.00,2013-01-08 16:31:00,
2013-01-08 09:36:00,44.1,15.4,29.91,SW,231,0.0,0.0,31,0.00,,---,0.00,VWS V14.00,2013-01-08 16:36:00,
2013-01-08 09:41:00,45.4,15.8,29.91,SW,231,0.0,2.0,30,0.00,,---,0.00,VWS V14.00,2013-01-08 16:41:00,
2013-01-08 09:46:00,46.7,15.3,29.91,SW,233,0.0,2.0,28,0.00,,---,0.00,VWS V14.00,2013-01-08 16:46:00,
2013-01-08 09:51:00,47.6,15.3,29.91,WNW,298,2.0,4.0,27,0.00,,---,0.00,VWS V14.00,2013-01-08 16:51:00,
2013-01-08 09:56:00,48.3,15.0,29.91,WNW,296,2.0,5.0,26,0.00,,---,0.00,VWS V14.00,2013-01-08 16:56:00,
2013-01-08 10:00:00,46.6,13.6,29.91,WNW,292,0.0,5.0,26,0.00,,---,0.00,VWS V14.00,2013-01-08 17:00:00,
2013-01-08 10:01:00,49.1,15.7,29.91,WNW,302,0.0,5.0,26,0.00,,---,0.00,VWS V14.00,2013-01-08 17:01:00,
2013-01-08 10:06:00,49.7,15.3,29.91,WNW,298,2.0,5.0,25,0.00,,---,0.00,VWS V14.00,2013-01-08 17:06:00,
2013-01-08 10:11:00,50.1,15.7,29.91,WNW,303,0.0,6.0,25,0.00,,---,0.00,VWS V14.00,2013-01-08 17:11:00,
2013-01-08 10:16:00,50.7,16.2,29.91,WNW,303,0.0,6.0,25,0.00,,---,0.00,VWS V14.00,2013-01-08 17:16:00,
2013-01-08 10:21:00,51.3,16.7,29.91,WNW,303,0.0,6.0,25,0.00,,---,0.00,VWS V14.00,2013-01-08 17:21:00,
2013-01-08 10:26:00,51.6,16.0,29.91,SSE,155,0.0,6.0,24,0.00,,---,0.00,VWS V14.00,2013-01-08 17:26:00,
2013-01-08 10:30:00,50.7,15.2,29.90,WNW,292,1.0,6.0,24,0.00,,---,0.00,VWS V14.00,2013-01-08 17:30:00,
2013-01-08 10:31:00,51.6,16.0,29.90,SSE,164,0.0,6.0,24,0.00,,---,0.00,VWS V14.00,2013-01-08 17:31:00,
2013-01-08 10:36:00,51.7,16.1,29.90,SSE,166,0.0,3.0,24,0.00,,---,0.00,VWS V14.00,2013-01-08 17:36:00,
2013-01-08 10:41:00,52.0,16.4,29.90,WSW,256,0.0,3.0,24,0.00,,---,0.00,VWS V14.00,2013-01-08 17:41:00,
2013-01-08 10:46:00,52.3,16.6,29.90,West,260,0.0,3.0,24,0.00,,---,0.00,VWS V14.00,2013-01-08 17:46:00,
2013-01-08 10:51:00,52.8,17.0,29.90,West,260,1.0,3.0,24,0.00,,---,0.00,VWS V14.00,2013-01-08 17:51:00,
2013-01-08 10:56:00,53.1,16.3,29.90,West,272,1.0,3.0,23,0.00,,---,0.00,VWS V14.00,2013-01-08 17:56:00,
2013-01-08 11:00:00,52.5,14.8,29.90,West,270,0.0,4.0,22,0.00,,---,0.00,VWS V14.00,2013-01-08 18:00:00,
2013-01-08 11:01:00,53.4,16.5,29.90,West,273,0.0,4.0,23,0.00,,---,0.00,VWS V14.00,2013-01-08 18:01:00,
2013-01-08 11:06:00,53.7,16.8,29.90,WSW,250,0.0,7.0,23,0.00,,---,0.00,VWS V14.00,2013-01-08 18:06:00,
2013-01-08 11:11:00,53.7,16.8,29.90,WSW,255,0.0,7.0,23,0.00,,---,0.00,VWS V14.00,2013-01-08 18:11:00,
2013-01-08 11:16:00,53.5,16.6,29.90,SSE,166,0.0,7.0,23,0.00,,---,0.00,VWS V14.00,2013-01-08 18:16:00,
2013-01-08 11:21:00,53.4,16.5,29.90,SSE,167,0.0,7.0,23,0.00,,---,0.00,VWS V14.00,2013-01-08 18:21:00,
2013-01-08 11:26:00,53.5,16.6,29.90,NNE,22,0.0,7.0,23,0.00,,---,0.00,VWS V14.00,2013-01-08 18:26:00,
2013-01-08 11:30:00,53.6,16.7,29.89,WSW,248,0.0,7.0,23,0.00,,---,0.00,VWS V14.00,2013-01-08 18:30:00,
2013-01-08 11:31:00,53.5,16.6,29.90,NNE,22,0.0,7.0,23,0.00,,---,0.00,VWS V14.00,2013-01-08 18:31:00,
2013-01-08 11:36:00,53.7,15.8,29.89,NNE,19,0.0,1.0,22,0.00,,---,0.00,VWS V14.00,2013-01-08 18:36:00,
2013-01-08 11:41:00,53.7,16.8,29.89,North,5,0.0,2.0,23,0.00,,---,0.00,VWS V14.00,2013-01-08 18:41:00,
2013-01-08 11:46:00,53.7,15.8,29.89,North,351,0.0,2.0,22,0.00,,---,0.00,VWS V14.00,2013-01-08 18:46:00,
2013-01-08 11:51:00,53.5,15.6,29.89,NNE,21,0.0,3.0,22,0.00,,---,0.00,VWS V14.00,2013-01-08 18:51:00,
2013-01-08 11:56:00,53.5,16.6,29.89,North,355,0.0,3.0,23,0.00,,---,0.00,VWS V14.00,2013-01-08 18:56:00,
2013-01-08 12:00:00,53.6,16.7,29.89,North,0,0.0,3.0,23,0.00,,---,0.00,VWS V14.00,2013-01-08 19:00:00,
2013-01-08 12:01:00,53.5,15.6,29.89,North,355,0.0,3.0,22,0.00,,---,0.00,VWS V14.00,2013-01-08 19:01:00,
2013-01-08 12:06:00,53.4,16.5,29.89,North,355,0.0,0.0,23,0.00,,---,0.00,VWS V14.00,2013-01-08 19:06:00,
2013-01-08 12:11:00,53.4,16.5,29.89,West,261,1.0,6.0,23,0.00,,---,0.00,VWS V14.00,2013-01-08 19:11:00,
2013-01-08 12:16:00,53.2,16.4,29.89,WNW,300,1.0,6.0,23,0.00,,---,0.00,VWS V14.00,2013-01-08 19:16:00,
2013-01-08 12:21:00,53.1,18.2,29.89,NW,319,0.0,6.0,25,0.00,,---,0.00,VWS V14.00,2013-01-08 19:21:00,
2013-01-08 12:26:00,53.1,18.2,29.89,North,350,1.0,6.0,25,0.00,,---,0.00,VWS V14.00,2013-01-08 19:26:00,
2013-01-08 12:30:00,53.2,18.3,29.89,WNW,292,1.0,10.0,25,0.00,,---,0.00,VWS V14.00,2013-01-08 19:30:00,
2013-01-08 12:31:00,53.1,18.2,29.89,WNW,283,1.0,9.0,25,0.00,,---,0.00,VWS V14.00,2013-01-08 19:31:00,
2013-01-08 12:36:00,52.9,18.0,29.89,WNW,291,0.0,6.0,25,0.00,,---,0.00,VWS V14.00,2013-01-08 19:36:00,
2013-01-08 12:41:00,53.1,18.2,29.89,West,279,5.0,6.0,25,0.00,,---,0.00,VWS V14.00,2013-01-08 19:41:00,
2013-01-08 12:46:00,52.8,18.0,29.89,WNW,286,1.0,6.0,25,0.00,,---,0.00,VWS V14.00,2013-01-08 19:46:00,
2013-01-08 12:51:00,52.5,17.7,29.90,West,275,1.0,8.0,25,0.00,,---,0.00,VWS V14.00,2013-01-08 19:51:00,
2013-01-08 12:56:00,52.3,17.5,29.90,NW,321,0.0,8.0,25,0.00,,---,0.00,VWS V14.00,2013-01-08 19:56:00,
2013-01-08 13:00:00,52.7,17.9,29.90,WNW,292,1.0,8.0,25,0.00,,---,0.00,VWS V14.00,2013-01-08 20:00:00,
2013-01-08 13:01:00,52.5,17.7,29.90,NW,317,0.0,8.0,25,0.00,,---,0.00,VWS V14.00,2013-01-08 20:01:00,
2013-01-08 13:06:00,52.8,18.0,29.90,NW,317,0.0,2.0,25,0.00,,---,0.00,VWS V14.00,2013-01-08 20:06:00,
2013-01-08 13:11:00,52.9,18.0,29.90,West,265,0.0,5.0,25,0.00,,---,0.00,VWS V14.00,2013-01-08 20:11:00,
2013-01-08 13:16:00,53.2,18.3,29.90,North,5,2.0,5.0,25,0.00,,---,0.00,VWS V14.00,2013-01-08 20:16:00,
2013-01-08 13:21:00,53.2,18.3,29.90,North,360,3.0,9.0,25,0.00,,---,0.00,VWS V14.00,2013-01-08 20:21:00,
2013-01-08 13:26:00,53.2,18.3,29.90,NW,321,0.0,9.0,25,0.00,,---,0.00,VWS V14.00,2013-01-08 20:26:00,
2013-01-08 13:30:00,53.0,18.1,29.90,WNW,292,1.0,9.0,25,0.00,,---,0.00,VWS V14.00,2013-01-08 20:30:00,
2013-01-08 13:31:00,52.9,18.0,29.90,NNW,329,0.0,9.0,25,0.00,,---,0.00,VWS V14.00,2013-01-08 20:31:00,
2013-01-08 13:36:00,52.8,18.0,29.90,WNW,284,0.0,3.0,25,0.00,,---,0.00,VWS V14.00,2013-01-08 20:36:00,
2013-01-08 13:41:00,52.9,18.0,29.90,WNW,294,3.0,8.0,25,0.00,,---,0.00,VWS V14.00,2013-01-08 20:41:00,
2013-01-08 13:46:00,52.8,18.0,29.90,WNW,297,0.0,8.0,25,0.00,,---,0.00,VWS V14.00,2013-01-08 20:46:00,
2013-01-08 13:51:00,52.9,18.0,29.91,North,355,1.0,8.0,25,0.00,,---,0.00,VWS V14.00,2013-01-08 20:51:00,
2013-01-08 13:56:00,52.8,18.0,29.91,NW,307,1.0,8.0,25,0.00,,---,0.00,VWS V14.00,2013-01-08 20:56:00,
2013-01-08 14:00:00,52.8,18.9,29.92,WNW,292,1.0,8.0,26,0.00,,---,0.00,VWS V14.00,2013-01-08 21:00:00,
2013-01-08 14:01:00,52.8,18.0,29.91,WNW,288,0.0,8.0,25,0.00,,---,0.00,VWS V14.00,2013-01-08 21:01:00,
2013-01-08 14:06:00,52.8,18.9,29.92,WSW,245,0.0,2.0,26,0.00,,---,0.00,VWS V14.00,2013-01-08 21:06:00,
2013-01-08 14:11:00,52.6,17.8,29.92,WNW,300,1.0,3.0,25,0.00,,---,0.00,VWS V14.00,2013-01-08 21:11:00,
2013-01-08 14:16:00,52.5,18.6,29.92,NNE,15,0.0,6.0,26,0.00,,---,0.00,VWS V14.00,2013-01-08 21:16:00,
2013-01-08 14:21:00,52.2,17.5,29.93,NNW,347,0.0,6.0,25,0.00,,---,0.00,VWS V14.00,2013-01-08 21:21:00,
2013-01-08 14:26:00,51.9,19.0,29.93,WNW,288,1.0,6.0,27,0.00,,---,0.00,VWS V14.00,2013-01-08 21:26:00,
2013-01-08 14:30:00,51.7,17.0,29.93,WNW,288,0.0,7.0,25,0.00,,---,0.00,VWS V14.00,2013-01-08 21:30:00,
2013-01-08 14:35:00,51.7,18.8,29.93,West,273,1.0,3.0,27,0.00,,---,0.00,VWS V14.00,2013-01-08 21:35:00,
2013-01-08 14:40:00,51.7,17.9,29.93,NNW,348,0.0,3.0,26,0.00,,---,0.00,VWS V14.00,2013-01-08 21:40:00,
2013-01-08 14:45:00,51.6,17.9,29.93,NNE,32,0.0,4.0,26,0.00,,---,0.00,VWS V14.00,2013-01-08 21:45:00,
2013-01-08 14:50:00,51.4,17.7,29.94,West,269,0.0,4.0,26,0.00,,---,0.00,VWS V14.00,2013-01-08 21:50:00,
2013-01-08 14:55:00,51.1,17.4,29.94,West,281,0.0,4.0,26,0.00,,---,0.00,VWS V14.00,2013-01-08 21:55:00,
2013-01-08 15:00:00,51.0,17.3,29.94,NW,304,0.0,4.0,26,0.00,,---,0.00,VWS V14.00,2013-01-08 22:00:00,
2013-01-08 15:05:00,50.7,17.1,29.96,NW,304,0.0,2.0,26,0.00,,---,0.00,VWS V14.00,2013-01-08 22:05:00,
2013-01-08 15:10:00,50.5,16.9,29.96,NNE,19,0.0,4.0,26,0.00,,---,0.00,VWS V14.00,2013-01-08 22:10:00,
2013-01-08 15:15:00,50.4,17.7,29.96,NNE,19,0.0,4.0,27,0.00,,---,0.00,VWS V14.00,2013-01-08 22:15:00,
2013-01-08 15:20:00,50.2,17.5,29.97,NNE,19,0.0,4.0,27,0.00,,---,0.00,VWS V14.00,2013-01-08 22:20:00,
2013-01-08 15:25:00,50.2,17.5,29.97,NNE,19,0.0,4.0,27,0.00,,---,0.00,VWS V14.00,2013-01-08 22:25:00,
2013-01-08 15:30:00,50.1,16.6,29.97,NNE,19,0.0,4.0,26,0.00,,---,0.00,VWS V14.00,2013-01-08 22:30:00,
2013-01-08 15:35:00,50.1,16.6,29.98,NNE,19,0.0,0.0,26,0.00,,---,0.00,VWS V14.00,2013-01-08 22:35:00,
2013-01-08 15:40:00,50.0,17.4,29.98,NNE,19,0.0,0.0,27,0.00,,---,0.00,VWS V14.00,2013-01-08 22:40:00,
2013-01-08 15:45:00,49.5,16.9,29.98,NNE,19,0.0,0.0,27,0.00,,---,0.00,VWS V14.00,2013-01-08 22:45:00,
2013-01-08 15:50:00,49.2,17.5,29.99,NNE,19,0.0,0.0,28,0.00,,---,0.00,VWS V14.00,2013-01-08 22:50:00,
2013-01-08 15:55:00,48.9,17.2,29.99,NNE,19,0.0,1.0,28,0.00,,---,0.00,VWS V14.00,2013-01-08 22:55:00,
2013-01-08 16:00:00,48.8,18.0,29.99,NNE,19,0.0,1.0,29,0.00,,---,0.00,VWS V14.00,2013-01-08 23:00:00,
2013-01-08 16:05:00,48.3,18.3,30.00,NNE,19,0.0,1.0,30,0.00,,---,0.00,VWS V14.00,2013-01-08 23:05:00,
2013-01-08 16:10:00,47.7,18.6,30.00,NNE,19,0.0,1.0,31,0.00,,---,0.00,VWS V14.00,2013-01-08 23:10:00,
2013-01-08 16:15:00,47.3,18.2,30.00,NNE,19,0.0,1.0,31,0.00,,---,0.00,VWS V14.00,2013-01-08 23:15:00,
2013-01-08 16:20:00,46.8,17.8,30.02,NNE,19,0.0,1.0,31,0.00,,---,0.00,VWS V14.00,2013-01-08 23:20:00,
2013-01-08 16:25:00,46.3,18.1,30.02,NNE,19,1.0,2.0,32,0.00,,---,0.00,VWS V14.00,2013-01-08 23:25:00,
2013-01-08 16:30:00,45.7,18.3,30.02,NNE,20,0.0,3.0,33,0.00,,---,0.00,VWS V14.00,2013-01-08 23:30:00,
2013-01-08 16:35:00,45.4,18.0,30.03,NNE,20,0.0,2.0,33,0.00,,---,0.00,VWS V14.00,2013-01-08 23:35:00,
2013-01-08 16:40:00,45.1,17.7,30.03,NNE,20,0.0,2.0,33,0.00,,---,0.00,VWS V14.00,2013-01-08 23:40:00,
2013-01-08 16:45:00,44.7,18.1,30.03,NNE,20,0.0,2.0,34,0.00,,---,0.00,VWS V14.00,2013-01-08 23:45:00,
2013-01-08 16:50:00,44.4,17.8,30.04,NNE,20,2.0,3.0,34,0.00,,---,0.00,VWS V14.00,2013-01-08 23:50:00,
2013-01-08 16:55:00,44.1,18.2,30.04,NNE,20,0.0,3.0,35,0.00,,---,0.00,VWS V14.00,2013-01-08 23:55:00,
2013-01-08 17:00:00,43.9,18.0,30.04,NNE,20,2.0,3.0,35,0.00,,---,0.00,VWS V14.00,2013-01-09 00:00:00,
2013-01-08 17:05:00,43.7,17.9,30.05,NNE,21,0.0,3.0,35,0.00,,---,0.00,VWS V14.00,2013-01-09 00:05:00,
2013-01-08 17:10:00,43.2,18.1,30.05,NNE,24,0.0,3.0,36,0.00,,---,0.00,VWS V14.00,2013-01-09 00:10:00,
2013-01-08 17:15:00,43.1,18.0,30.05,NNE,24,3.0,3.0,36,0.00,,---,0.00,VWS V14.00,2013-01-09 00:15:00,
2013-01-08 17:20:00,43.1,17.3,30.05,NNE,24,1.0,4.0,35,0.00,,---,0.00,VWS V14.00,2013-01-09 00:20:00,
2013-01-08 17:25:00,42.9,17.8,30.05,NNE,24,0.0,4.0,36,0.00,,---,0.00,VWS V14.00,2013-01-09 00:25:00,
2013-01-08 17:30:00,42.7,17.6,30.05,NNE,24,0.0,4.0,36,0.00,,---,0.00,VWS V14.00,2013-01-09 00:30:00,
2013-01-08 17:35:00,42.2,17.8,30.06,NNE,24,0.0,0.0,37,0.00,,---,0.00,VWS V14.00,2013-01-09 00:35:00,
2013-01-08 17:40:00,41.8,18.1,30.06,NNE,24,0.0,2.0,38,0.00,,---,0.00,VWS V14.00,2013-01-09 00:40:00,
2013-01-08 17:45:00,41.7,18.0,30.06,NNE,24,0.0,3.0,38,0.00,,---,0.00,VWS V14.00,2013-01-09 00:45:00,
2013-01-08 17:50:00,41.7,18.6,30.07,NNE,24,0.0,3.0,39,0.00,,---,0.00,VWS V14.00,2013-01-09 00:50:00,
2013-01-08 17:55:00,41.2,18.1,30.07,NNE,24,0.0,3.0,39,0.00,,---,0.00,VWS V14.00,2013-01-09 00:55:00,
2013-01-08 18:00:00,40.8,17.8,30.07,NNE,24,0.0,3.0,39,0.00,,---,0.00,VWS V14.00,2013-01-09 01:00:00,
2013-01-08 18:05:00,40.2,18.4,30.08,NNE,24,0.0,0.0,41,0.00,,---,0.00,VWS V14.00,2013-01-09 01:05:00,
2013-01-08 18:10:00,39.8,18.6,30.08,NNE,24,0.0,0.0,42,0.00,,---,0.00,VWS V14.00,2013-01-09 01:10:00,
2013-01-08 18:15:00,39.4,19.3,30.08,NNE,24,0.0,0.0,44,0.00,,---,0.00,VWS V14.00,2013-01-09 01:15:00,
2013-01-08 18:20:00,38.6,19.1,30.08,NNE,24,0.0,0.0,45,0.00,,---,0.00,VWS V14.00,2013-01-09 01:20:00,
2013-01-08 18:25:00,38.2,19.3,30.08,NNE,24,0.0,0.0,46,0.00,,---,0.00,VWS V14.00,2013-01-09 01:25:00,
2013-01-08 18:30:00,38.1,19.7,30.08,NNE,24,0.0,1.0,47,0.00,,---,0.00,VWS V14.00,2013-01-09 01:30:00,
2013-01-08 18:35:00,37.9,20.0,30.09,ENE,58,0.0,1.0,48,0.00,,---,0.00,VWS V14.00,2013-01-09 01:35:00,
2013-01-08 18:40:00,37.9,20.0,30.09,ENE,58,0.0,1.0,48,0.00,,---,0.00,VWS V14.00,2013-01-09 01:40:00,
2013-01-08 18:45:00,37.8,20.4,30.09,ENE,58,0.0,1.0,49,0.00,,---,0.00,VWS V14.00,2013-01-09 01:45:00,
2013-01-08 18:50:00,37.5,20.1,30.09,ENE,58,0.0,1.0,49,0.00,,---,0.00,VWS V14.00,2013-01-09 01:50:00,
2013-01-08 18:55:00,37.2,19.8,30.09,ENE,58,0.0,1.0,49,0.00,,---,0.00,VWS V14.00,2013-01-09 01:55:00,
2013-01-08 19:00:00,36.9,20.0,30.09,ENE,58,0.0,1.0,50,0.00,,---,0.00,VWS V14.00,2013-01-09 02:00:00,
2013-01-08 19:05:00,36.5,20.1,30.10,ENE,58,0.0,0.0,51,0.00,,---,0.00,VWS V14.00,2013-01-09 02:05:00,
2013-01-08 19:10:00,36.2,20.3,30.10,ENE,58,0.0,0.0,52,0.00,,---,0.00,VWS V14.00,2013-01-09 02:10:00,
2013-01-08 19:15:00,35.9,20.5,30.10,ENE,58,0.0,0.0,53,0.00,,---,0.00,VWS V14.00,2013-01-09 02:15:00,
2013-01-08 19:20:00,35.6,20.2,30.10,ENE,58,0.0,0.0,53,0.00,,---,0.00,VWS V14.00,2013-01-09 02:20:00,
2013-01-08 19:25:00,35.3,20.3,30.10,ENE,58,0.0,0.0,54,0.00,,---,0.00,VWS V14.00,2013-01-09 02:25:00,
2013-01-08 19:30:00,35.0,20.0,30.10,ENE,58,0.0,0.0,54,0.00,,---,0.00,VWS V14.00,2013-01-09 02:30:00,
2013-01-08 19:35:00,34.7,20.2,30.10,ENE,58,0.0,0.0,55,0.00,,---,0.00,VWS V14.00,2013-01-09 02:35:00,
2013-01-08 19:40:00,34.4,19.9,30.10,ENE,58,0.0,0.0,55,0.00,,---,0.00,VWS V14.00,2013-01-09 02:40:00,
2013-01-08 19:45:00,34.1,20.1,30.10,ENE,58,0.0,0.0,56,0.00,,---,0.00,VWS V14.00,2013-01-09 02:45:00,
2013-01-08 19:50:00,33.8,20.2,30.10,ENE,58,0.0,0.0,57,0.00,,---,0.00,VWS V14.00,2013-01-09 02:50:00,
2013-01-08 19:55:00,33.5,19.9,30.10,ENE,58,0.0,0.0,57,0.00,,---,0.00,VWS V14.00,2013-01-09 02:55:00,
2013-01-08 20:00:00,33.3,20.1,30.10,ENE,58,0.0,0.0,58,0.00,,---,0.00,VWS V14.00,2013-01-09 03:00:00,
2013-01-08 20:05:00,33.1,19.9,30.11,ENE,58,0.0,0.0,58,0.00,,---,0.00,VWS V14.00,2013-01-09 03:05:00,
2013-01-08 20:10:00,32.8,20.1,30.11,ENE,58,0.0,0.0,59,0.00,,---,0.00,VWS V14.00,2013-01-09 03:10:00,
2013-01-08 20:15:00,32.8,20.1,30.11,ENE,58,0.0,0.0,59,0.00,,---,0.00,VWS V14.00,2013-01-09 03:15:00,
2013-01-08 20:20:00,32.5,19.8,30.12,ENE,58,0.0,0.0,59,0.00,,---,0.00,VWS V14.00,2013-01-09 03:20:00,
2013-01-08 20:25:00,32.4,20.1,30.12,ENE,58,0.0,0.0,60,0.00,,---,0.00,VWS V14.00,2013-01-09 03:25:00,
2013-01-08 20:30:00,32.1,19.8,30.12,ENE,58,0.0,0.0,60,0.00,,---,0.00,VWS V14.00,2013-01-09 03:30:00,
2013-01-08 20:35:00,31.8,19.9,30.12,ENE,58,0.0,0.0,61,0.00,,---,0.00,VWS V14.00,2013-01-09 03:35:00,
2013-01-08 20:40:00,31.3,19.4,30.12,ENE,58,0.0,0.0,61,0.00,,---,0.00,VWS V14.00,2013-01-09 03:40:00,
2013-01-08 20:45:00,30.9,19.4,30.12,ENE,58,0.0,0.0,62,0.00,,---,0.00,VWS V14.00,2013-01-09 03:45:00,
2013-01-08 20:50:00,30.4,19.0,30.14,ENE,58,0.0,0.0,62,0.00,,---,0.00,VWS V14.00,2013-01-09 03:50:00,
2013-01-08 20:55:00,30.1,18.3,30.14,ENE,58,0.0,0.0,61,0.00,,---,0.00,VWS V14.00,2013-01-09 03:55:00,
2013-01-08 21:00:00,29.7,17.9,30.14,ENE,58,0.0,0.0,61,0.00,,---,0.00,VWS V14.00,2013-01-09 04:00:00,
2013-01-08 21:05:00,29.6,17.4,30.15,ENE,58,0.0,0.0,60,0.00,,---,0.00,VWS V14.00,2013-01-09 04:05:00,
2013-01-08 21:10:00,29.7,16.8,30.15,ENE,58,0.0,0.0,58,0.00,,---,0.00,VWS V14.00,2013-01-09 04:10:00,
2013-01-08 21:15:00,30.0,15.8,30.15,ENE,58,0.0,0.0,55,0.00,,---,0.00,VWS V14.00,2013-01-09 04:15:00,
2013-01-08 21:20:00,30.7,16.0,30.16,ENE,64,0.0,2.0,54,0.00,,---,0.00,VWS V14.00,2013-01-09 04:20:00,
2013-01-08 21:25:00,31.3,15.7,30.16,ENE,64,0.0,2.0,52,0.00,,---,0.00,VWS V14.00,2013-01-09 04:25:00,
2013-01-08 21:30:00,31.8,16.2,30.16,ENE,64,0.0,2.0,52,0.00,,---,0.00,VWS V14.00,2013-01-09 04:30:00,
2013-01-08 21:35:00,31.9,15.8,30.16,ENE,64,0.0,0.0,51,0.00,,---,0.00,VWS V14.00,2013-01-09 04:35:00,
2013-01-08 21:40:00,31.9,15.8,30.16,ENE,64,0.0,0.0,51,0.00,,---,0.00,VWS V14.00,2013-01-09 04:40:00,
2013-01-08 21:45:00,31.8,16.2,30.16,ENE,64,0.0,0.0,52,0.00,,---,0.00,VWS V14.00,2013-01-09 04:45:00,
2013-01-08 21:50:00,31.6,16.0,30.16,ENE,64,0.0,0.0,52,0.00,,---,0.00,VWS V14.00,2013-01-09 04:50:00,
2013-01-08 21:55:00,31.6,15.6,30.16,ENE,64,0.0,0.0,51,0.00,,---,0.00,VWS V14.00,2013-01-09 04:55:00,
2013-01-08 22:00:00,31.6,15.6,30.16,ENE,64,0.0,0.0,51,0.00,,---,0.00,VWS V14.00,2013-01-09 05:00:00,
2013-01-08 22:03:00,31.6,15.6,30.18,ENE,64,0.0,0.0,51,0.00,,---,0.00,VWS V14.00,2013-01-09 05:03:00,
2013-01-08 22:08:00,31.9,15.4,30.18,ENE,64,0.0,0.0,50,0.00,,---,0.00,VWS V14.00,2013-01-09 05:08:00,
2013-01-08 22:13:00,32.1,15.6,30.18,ENE,64,0.0,1.0,50,0.00,,---,0.00,VWS V14.00,2013-01-09 05:13:00,
2013-01-08 22:18:00,32.2,15.7,30.19,ENE,64,0.0,1.0,50,0.00,,---,0.00,VWS V14.00,2013-01-09 05:18:00,
2013-01-08 22:23:00,32.4,15.9,30.19,ENE,65,0.0,3.0,50,0.00,,---,0.00,VWS V14.00,2013-01-09 05:23:00,
2013-01-08 22:28:00,32.7,15.7,30.19,ENE,65,0.0,3.0,49,0.00,,---,0.00,VWS V14.00,2013-01-09 05:28:00,
2013-01-08 22:30:00,32.2,15.2,30.18,ENE,68,0.0,3.0,49,0.00,,---,0.00,VWS V14.00,2013-01-09 05:30:00,
2013-01-08 22:33:00,32.7,15.7,30.18,ENE,65,0.0,0.0,49,0.00,,---,0.00,VWS V14.00,2013-01-09 05:33:00,
2013-01-08 22:38:00,32.8,15.8,30.18,ENE,65,0.0,0.0,49,0.00,,---,0.00,VWS V14.00,2013-01-09 05:38:00,
2013-01-08 22:43:00,32.8,15.8,30.18,ENE,65,0.0,0.0,49,0.00,,---,0.00,VWS V14.00,2013-01-09 05:43:00,
2013-01-08 22:48:00,32.7,16.1,30.19,ENE,65,0.0,0.0,50,0.00,,---,0.00,VWS V14.00,2013-01-09 05:48:00,
2013-01-08 22:53:00,32.7,16.1,30.19,ENE,67,1.0,2.0,50,0.00,,---,0.00,VWS V14.00,2013-01-09 05:53:00,
2013-01-08 22:58:00,32.7,16.1,30.19,ENE,67,0.0,2.0,50,0.00,,---,0.00,VWS V14.00,2013-01-09 05:58:00,
2013-01-08 23:00:00,32.7,16.1,30.19,ENE,68,0.0,2.0,50,0.00,,---,0.00,VWS V14.00,2013-01-09 06:00:00,
2013-01-08 23:03:00,32.8,16.2,30.19,ENE,67,0.0,0.0,50,0.00,,---,0.00,VWS V14.00,2013-01-09 06:03:00,
2013-01-08 23:08:00,32.7,16.6,30.19,ESE,105,0.0,3.0,51,0.00,,---,0.00,VWS V14.00,2013-01-09 06:08:00,
2013-01-08 23:13:00,33.1,16.5,30.19,SSE,167,1.0,4.0,50,0.00,,---,0.00,VWS V14.00,2013-01-09 06:13:00,
2013-01-08 23:18:00,33.3,16.7,30.20,SSE,168,1.0,4.0,50,0.00,,---,0.00,VWS V14.00,2013-01-09 06:18:00,
2013-01-08 23:23:00,33.5,16.9,30.20,SSE,152,1.0,4.0,50,0.00,,---,0.00,VWS V14.00,2013-01-09 06:23:00,
2013-01-08 23:28:00,33.7,17.0,30.20,SE,143,1.0,7.0,50,0.00,,---,0.00,VWS V14.00,2013-01-09 06:28:00,
2013-01-08 23:30:00,33.2,16.6,30.20,SSE,158,1.0,7.0,50,0.00,,---,0.00,VWS V14.00,2013-01-09 06:30:00,
2013-01-08 23:33:00,33.8,17.1,30.20,SSE,159,0.0,4.0,50,0.00,,---,0.00,VWS V14.00,2013-01-09 06:33:00,
2013-01-08 23:38:00,33.8,17.1,30.20,SE,140,1.0,4.0,50,0.00,,---,0.00,VWS V14.00,2013-01-09 06:38:00,
2013-01-08 23:43:00,33.8,17.1,30.20,South,182,0.0,4.0,50,0.00,,---,0.00,VWS V14.00,2013-01-09 06:43:00,
2013-01-08 23:48:00,33.7,17.0,30.20,South,171,0.0,4.0,50,0.00,,---,0.00,VWS V14.00,2013-01-09 06:48:00,
2013-01-08 23:53:00,33.7,17.5,30.20,SSE,157,1.0,5.0,51,0.00,,---,0.00,VWS V14.00,2013-01-09 06:53:00,
2013-01-08 23:58:00,33.5,17.3,30.20,SSE,160,3.0,5.0,51,0.00,,---,0.00,VWS V14.00,2013-01-09 06:58:00,